����������;��������(kWh)
2018-02-19 00:00;93,5
2018-02-19 00:15;97,9
2018-02-19 00:30;94,65
2018-02-19 00:45;95,15
2018-02-19 01:00;95,35
2018-02-19 01:15;95,2
2018-02-19 01:30;94,75
2018-02-19 01:45;94,9
2018-02-19 02:00;95,65
2018-02-19 02:15;95,35
2018-02-19 02:30;97,6
2018-02-19 02:45;97
2018-02-19 03:00;97,65
2018-02-19 03:15;95,95
2018-02-19 03:30;97
2018-02-19 03:45;97,2
2018-02-19 04:00;97,05
2018-02-19 04:15;97,65
2018-02-19 04:30;96,7
2018-02-19 04:45;96,1
2018-02-19 05:00;94,75
2018-02-19 05:15;94
2018-02-19 05:30;94,1
2018-02-19 05:45;93,75
2018-02-19 06:00;97,7
2018-02-19 06:15;97,95
2018-02-19 06:30;96,4
2018-02-19 06:45;95,2
2018-02-19 07:00;95,35
2018-02-19 07:15;94,5
2018-02-19 07:30;92,55
2018-02-19 07:45;93,4
2018-02-19 08:00;91,8
2018-02-19 08:15;91,95
2018-02-19 08:30;91,35
2018-02-19 08:45;92,95
2018-02-19 09:00;94,35
2018-02-19 09:15;91,75
2018-02-19 09:30;91,3
2018-02-19 09:45;94,3
2018-02-19 10:00;98,6
2018-02-19 10:15;99,35
2018-02-19 10:30;101,3
2018-02-19 10:45;103,95
2018-02-19 11:00;104,2
2018-02-19 11:15;106,75
2018-02-19 11:30;102,85
2018-02-19 11:45;102,05
2018-02-19 12:00;99,75
2018-02-19 12:15;102,5
2018-02-19 12:30;98,4
2018-02-19 12:45;103,15
2018-02-19 13:00;102,75
2018-02-19 13:15;108,25
2018-02-19 13:30;102,65
2018-02-19 13:45;106,1
2018-02-19 14:00;105,3
2018-02-19 14:15;101,2
2018-02-19 14:30;100,7
2018-02-19 14:45;97,8
2018-02-19 15:00;103,85
2018-02-19 15:15;101,3
2018-02-19 15:30;101,8
2018-02-19 15:45;101,5
2018-02-19 16:00;102
2018-02-19 16:15;102
2018-02-19 16:30;103,75
2018-02-19 16:45;102
2018-02-19 17:00;108,2
2018-02-19 17:15;106,25
2018-02-19 17:30;107,95
2018-02-19 17:45;114,1
2018-02-19 18:00;111,6
2018-02-19 18:15;115,5
2018-02-19 18:30;113,7
2018-02-19 18:45;113,2
2018-02-19 19:00;117,3
2018-02-19 19:15;113,7
2018-02-19 19:30;111,25
2018-02-19 19:45;115,35
2018-02-19 20:00;116,6
2018-02-19 20:15;110,2
2018-02-19 20:30;111,85
2018-02-19 20:45;111,35
2018-02-19 21:00;108,5
2018-02-19 21:15;111,1
2018-02-19 21:30;109,2
2018-02-19 21:45;106,95
2018-02-19 22:00;103,1
2018-02-19 22:15;101,85
2018-02-19 22:30;99,4
2018-02-19 22:45;101,65
2018-02-19 23:00;106,9
2018-02-19 23:15;103,85
2018-02-19 23:30;108,55
2018-02-19 23:45;115,35
2018-02-20 00:00;103,9
2018-02-20 00:15;104,15
2018-02-20 00:30;105,8
2018-02-20 00:45;104,35
2018-02-20 01:00;103,75
2018-02-20 01:15;105,25
2018-02-20 01:30;105,35
2018-02-20 01:45;104,3
2018-02-20 02:00;103,85
2018-02-20 02:15;105,6
2018-02-20 02:30;107,25
2018-02-20 02:45;100,55
2018-02-20 03:00;99
2018-02-20 03:15;101,05
2018-02-20 03:30;99,05
2018-02-20 03:45;98,5
2018-02-20 04:00;97,65
2018-02-20 04:15;98,65
2018-02-20 04:30;98,9
2018-02-20 04:45;98,15
2018-02-20 05:00;96,7
2018-02-20 05:15;98,05
2018-02-20 05:30;98,3
2018-02-20 05:45;96,8
2018-02-20 06:00;97,85
2018-02-20 06:15;98,3
2018-02-20 06:30;98,1
2018-02-20 06:45;97,6
2018-02-20 07:00;101,25
2018-02-20 07:15;101,4
2018-02-20 07:30;103,05
2018-02-20 07:45;107,85
2018-02-20 08:00;119,45
2018-02-20 08:15;132,4
2018-02-20 08:30;143,75
2018-02-20 08:45;160,7
2018-02-20 09:00;160,75
2018-02-20 09:15;177,8
2018-02-20 09:30;189,65
2018-02-20 09:45;203,45
2018-02-20 10:00;205,45
2018-02-20 10:15;214,1
2018-02-20 10:30;232,25
2018-02-20 10:45;235,85
2018-02-20 11:00;238,6
2018-02-20 11:15;239,55
2018-02-20 11:30;245,55
2018-02-20 11:45;242,7
2018-02-20 12:00;241,15
2018-02-20 12:15;246,7
2018-02-20 12:30;244,15
2018-02-20 12:45;240,85
2018-02-20 13:00;242,7
2018-02-20 13:15;244,9
2018-02-20 13:30;246,45
2018-02-20 13:45;251,55
2018-02-20 14:00;255,6
2018-02-20 14:15;250,85
2018-02-20 14:30;246,65
2018-02-20 14:45;242,35
2018-02-20 15:00;237,85
2018-02-20 15:15;228,9
2018-02-20 15:30;220,85
2018-02-20 15:45;213,8
2018-02-20 16:00;210,4
2018-02-20 16:15;195,45
2018-02-20 16:30;189,05
2018-02-20 16:45;186,85
2018-02-20 17:00;179,55
2018-02-20 17:15;173,05
2018-02-20 17:30;174,8
2018-02-20 17:45;176,2
2018-02-20 18:00;178,05
2018-02-20 18:15;177,7
2018-02-20 18:30;174
2018-02-20 18:45;173,8
2018-02-20 19:00;176,7
2018-02-20 19:15;167
2018-02-20 19:30;156,3
2018-02-20 19:45;149,85
2018-02-20 20:00;143,55
2018-02-20 20:15;136,5
2018-02-20 20:30;128,3
2018-02-20 20:45;126,8
2018-02-20 21:00;127,65
2018-02-20 21:15;124,85
2018-02-20 21:30;124,15
2018-02-20 21:45;120,25
2018-02-20 22:00;114,9
2018-02-20 22:15;114,8
2018-02-20 22:30;114,8
2018-02-20 22:45;113,3
2018-02-20 23:00;116,8
2018-02-20 23:15;110,3
2018-02-20 23:30;113,6
2018-02-20 23:45;120,65
2018-02-21 00:00;103,75
2018-02-21 00:15;103,35
2018-02-21 00:30;102,65
2018-02-21 00:45;102,9
2018-02-21 01:00;103,3
2018-02-21 01:15;103,25
2018-02-21 01:30;102,05
2018-02-21 01:45;103
2018-02-21 02:00;103,25
2018-02-21 02:15;102,45
2018-02-21 02:30;102,5
2018-02-21 02:45;103,35
2018-02-21 03:00;104,25
2018-02-21 03:15;104,55
2018-02-21 03:30;104,8
2018-02-21 03:45;104,35
2018-02-21 04:00;105,25
2018-02-21 04:15;104,1
2018-02-21 04:30;104,55
2018-02-21 04:45;103,55
2018-02-21 05:00;101,5
2018-02-21 05:15;103,75
2018-02-21 05:30;104,45
2018-02-21 05:45;103,95
2018-02-21 06:00;103,05
2018-02-21 06:15;101,3
2018-02-21 06:30;104,6
2018-02-21 06:45;102,8
2018-02-21 07:00;105,3
2018-02-21 07:15;106,2
2018-02-21 07:30;107,5
2018-02-21 07:45;125,15
2018-02-21 08:00;129,6
2018-02-21 08:15;136,85
2018-02-21 08:30;149,95
2018-02-21 08:45;171,5
2018-02-21 09:00;178,2
2018-02-21 09:15;191,2
2018-02-21 09:30;202,7
2018-02-21 09:45;199,65
2018-02-21 10:00;202,75
2018-02-21 10:15;205,25
2018-02-21 10:30;206,6
2018-02-21 10:45;210,15
2018-02-21 11:00;213,8
2018-02-21 11:15;217,15
2018-02-21 11:30;214,4
2018-02-21 11:45;209,25
2018-02-21 12:00;205,65
2018-02-21 12:15;192,9
2018-02-21 12:30;194,35
2018-02-21 12:45;195,5
2018-02-21 13:00;198
2018-02-21 13:15;200,45
2018-02-21 13:30;212,2
2018-02-21 13:45;203,1
2018-02-21 14:00;201,4
2018-02-21 14:15;188,4
2018-02-21 14:30;187,3
2018-02-21 14:45;183,1
2018-02-21 15:00;184
2018-02-21 15:15;184,25
2018-02-21 15:30;174,55
2018-02-21 15:45;166,85
2018-02-21 16:00;159,55
2018-02-21 16:15;157,65
2018-02-21 16:30;163,3
2018-02-21 16:45;165,3
2018-02-21 17:00;160,7
2018-02-21 17:15;145,2
2018-02-21 17:30;151,3
2018-02-21 17:45;152,7
2018-02-21 18:00;152,55
2018-02-21 18:15;150,6
2018-02-21 18:30;149
2018-02-21 18:45;150,35
2018-02-21 19:00;154,85
2018-02-21 19:15;148,1
2018-02-21 19:30;141,9
2018-02-21 19:45;138,8
2018-02-21 20:00;130,75
2018-02-21 20:15;132,4
2018-02-21 20:30;129,4
2018-02-21 20:45;130,25
2018-02-21 21:00;129,05
2018-02-21 21:15;120
2018-02-21 21:30;117,95
2018-02-21 21:45;115,85
2018-02-21 22:00;110,75
2018-02-21 22:15;111,25
2018-02-21 22:30;108,7
2018-02-21 22:45;109,15
2018-02-21 23:00;115,95
2018-02-21 23:15;109,4
2018-02-21 23:30;111,55
2018-02-21 23:45;117,35
2018-02-22 00:00;105,75
2018-02-22 00:15;103,65
2018-02-22 00:30;104,9
2018-02-22 00:45;104
2018-02-22 01:00;102,65
2018-02-22 01:15;101,95
2018-02-22 01:30;103,05
2018-02-22 01:45;103,8
2018-02-22 02:00;104,4
2018-02-22 02:15;103,3
2018-02-22 02:30;103,05
2018-02-22 02:45;102,8
2018-02-22 03:00;103,6
2018-02-22 03:15;104,4
2018-02-22 03:30;103,4
2018-02-22 03:45;104,3
2018-02-22 04:00;102,95
2018-02-22 04:15;101,95
2018-02-22 04:30;103,5
2018-02-22 04:45;103,1
2018-02-22 05:00;101,9
2018-02-22 05:15;103,65
2018-02-22 05:30;104,15
2018-02-22 05:45;103,65
2018-02-22 06:00;101,7
2018-02-22 06:15;99,65
2018-02-22 06:30;101,35
2018-02-22 06:45;96,95
2018-02-22 07:00;95,35
2018-02-22 07:15;95,9
2018-02-22 07:30;100,55
2018-02-22 07:45;107,75
2018-02-22 08:00;116
2018-02-22 08:15;123,65
2018-02-22 08:30;134,2
2018-02-22 08:45;142
2018-02-22 09:00;144,9
2018-02-22 09:15;160,35
2018-02-22 09:30;163,65
2018-02-22 09:45;166,15
2018-02-22 10:00;166,7
2018-02-22 10:15;168,75
2018-02-22 10:30;172
2018-02-22 10:45;172,2
2018-02-22 11:00;181,7
2018-02-22 11:15;187,9
2018-02-22 11:30;183,75
2018-02-22 11:45;173,9
2018-02-22 12:00;171,95
2018-02-22 12:15;173,8
2018-02-22 12:30;177,7
2018-02-22 12:45;171,65
2018-02-22 13:00;170,4
2018-02-22 13:15;172,15
2018-02-22 13:30;176
2018-02-22 13:45;179,55
2018-02-22 14:00;188,2
2018-02-22 14:15;199,3
2018-02-22 14:30;192,5
2018-02-22 14:45;178,05
2018-02-22 15:00;170,8
2018-02-22 15:15;169,1
2018-02-22 15:30;159,45
2018-02-22 15:45;159,05
2018-02-22 16:00;156,65
2018-02-22 16:15;158,7
2018-02-22 16:30;156
2018-02-22 16:45;157,55
2018-02-22 17:00;161,35
2018-02-22 17:15;151,45
2018-02-22 17:30;160,4
2018-02-22 17:45;163,55
2018-02-22 18:00;154,9
2018-02-22 18:15;162,3
2018-02-22 18:30;155,35
2018-02-22 18:45;148,85
2018-02-22 19:00;149,05
2018-02-22 19:15;146,3
2018-02-22 19:30;143,35
2018-02-22 19:45;136,25
2018-02-22 20:00;134,9
2018-02-22 20:15;135,6
2018-02-22 20:30;130,7
2018-02-22 20:45;132,25
2018-02-22 21:00;131,15
2018-02-22 21:15;128,5
2018-02-22 21:30;126,25
2018-02-22 21:45;123,65
2018-02-22 22:00;117,25
2018-02-22 22:15;117,1
2018-02-22 22:30;113,4
2018-02-22 22:45;115,75
2018-02-22 23:00;119,65
2018-02-22 23:15;115,3
2018-02-22 23:30;115,2
2018-02-22 23:45;123,3
2018-02-23 00:00;110,45
2018-02-23 00:15;110,9
2018-02-23 00:30;109,95
2018-02-23 00:45;106,6
2018-02-23 01:00;105,65
2018-02-23 01:15;103,2
2018-02-23 01:30;100,75
2018-02-23 01:45;101,05
2018-02-23 02:00;101,6
2018-02-23 02:15;100,7
2018-02-23 02:30;102,1
2018-02-23 02:45;103,25
2018-02-23 03:00;103,8
2018-02-23 03:15;104,25
2018-02-23 03:30;101,65
2018-02-23 03:45;103
2018-02-23 04:00;103
2018-02-23 04:15;101,55
2018-02-23 04:30;102,6
2018-02-23 04:45;101,5
2018-02-23 05:00;98,9
2018-02-23 05:15;102,05
2018-02-23 05:30;100,35
2018-02-23 05:45;102,5
2018-02-23 06:00;100,15
2018-02-23 06:15;100,2
2018-02-23 06:30;101,95
2018-02-23 06:45;102,85
2018-02-23 07:00;103,15
2018-02-23 07:15;102,7
2018-02-23 07:30;104,9
2018-02-23 07:45;109,45
2018-02-23 08:00;115,25
2018-02-23 08:15;123,3
2018-02-23 08:30;133,1
2018-02-23 08:45;143
2018-02-23 09:00;147,1
2018-02-23 09:15;150,9
2018-02-23 09:30;150,9
2018-02-23 09:45;154
2018-02-23 10:00;155,8
2018-02-23 10:15;156,6
2018-02-23 10:30;158,45
2018-02-23 10:45;165,9
2018-02-23 11:00;175,45
2018-02-23 11:15;182,6
2018-02-23 11:30;183,1
2018-02-23 11:45;177,95
2018-02-23 12:00;177,15
2018-02-23 12:15;175,8
2018-02-23 12:30;172,95
2018-02-23 12:45;176,75
2018-02-23 13:00;177,8
2018-02-23 13:15;173
2018-02-23 13:30;171,25
2018-02-23 13:45;171,9
2018-02-23 14:00;165,3
2018-02-23 14:15;160,65
2018-02-23 14:30;166,3
2018-02-23 14:45;162,75
2018-02-23 15:00;159,7
2018-02-23 15:15;158,35
2018-02-23 15:30;154,75
2018-02-23 15:45;148,75
2018-02-23 16:00;148,8
2018-02-23 16:15;143,2
2018-02-23 16:30;143,35
2018-02-23 16:45;143,6
2018-02-23 17:00;134,05
2018-02-23 17:15;127,55
2018-02-23 17:30;131,6
2018-02-23 17:45;139,1
2018-02-23 18:00;134,9
2018-02-23 18:15;137,05
2018-02-23 18:30;139,85
2018-02-23 18:45;143,75
2018-02-23 19:00;147,2
2018-02-23 19:15;142,55
2018-02-23 19:30;138,7
2018-02-23 19:45;132,75
2018-02-23 20:00;130,9
2018-02-23 20:15;126,95
2018-02-23 20:30;119,95
2018-02-23 20:45;117,55
2018-02-23 21:00;115,6
2018-02-23 21:15;112,85
2018-02-23 21:30;109,65
2018-02-23 21:45;111,45
2018-02-23 22:00;106,4
2018-02-23 22:15;107,85
2018-02-23 22:30;104,55
2018-02-23 22:45;106,35
2018-02-23 23:00;112,2
2018-02-23 23:15;107,45
2018-02-23 23:30;106,85
2018-02-23 23:45;110,45
2018-02-24 00:00;97,6
2018-02-24 00:15;97,65
2018-02-24 00:30;97,1
2018-02-24 00:45;96,1
2018-02-24 01:00;98,3
2018-02-24 01:15;96,95
2018-02-24 01:30;92,65
2018-02-24 01:45;93,45
2018-02-24 02:00;91,9
2018-02-24 02:15;94,1
2018-02-24 02:30;93,25
2018-02-24 02:45;93,55
2018-02-24 03:00;94,8
2018-02-24 03:15;91,85
2018-02-24 03:30;93,45
2018-02-24 03:45;92,4
2018-02-24 04:00;93,8
2018-02-24 04:15;91,1
2018-02-24 04:30;92,15
2018-02-24 04:45;92,45
2018-02-24 05:00;90,3
2018-02-24 05:15;92,05
2018-02-24 05:30;88,45
2018-02-24 05:45;90,4
2018-02-24 06:00;88,4
2018-02-24 06:15;92,35
2018-02-24 06:30;90,3
2018-02-24 06:45;90,85
2018-02-24 07:00;92,15
2018-02-24 07:15;88,7
2018-02-24 07:30;91,55
2018-02-24 07:45;84,9
2018-02-24 08:00;87,9
2018-02-24 08:15;82,95
2018-02-24 08:30;85,7
2018-02-24 08:45;82,25
2018-02-24 09:00;82,8
2018-02-24 09:15;80,65
2018-02-24 09:30;81
2018-02-24 09:45;83,1
2018-02-24 10:00;82,25
2018-02-24 10:15;82,45
2018-02-24 10:30;80,95
2018-02-24 10:45;84,6
2018-02-24 11:00;82
2018-02-24 11:15;93
2018-02-24 11:30;89,6
2018-02-24 11:45;89,5
2018-02-24 12:00;93,15
2018-02-24 12:15;93,3
2018-02-24 12:30;91,8
2018-02-24 12:45;91,05
2018-02-24 13:00;93,9
2018-02-24 13:15;91,95
2018-02-24 13:30;90
2018-02-24 13:45;91,2
2018-02-24 14:00;93,85
2018-02-24 14:15;91,5
2018-02-24 14:30;92,85
2018-02-24 14:45;91
2018-02-24 15:00;93,25
2018-02-24 15:15;93,85
2018-02-24 15:30;95,15
2018-02-24 15:45;99,5
2018-02-24 16:00;96,4
2018-02-24 16:15;98,75
2018-02-24 16:30;97,35
2018-02-24 16:45;101,35
2018-02-24 17:00;99,45
2018-02-24 17:15;96,4
2018-02-24 17:30;99,7
2018-02-24 17:45;100,85
2018-02-24 18:00;102,35
2018-02-24 18:15;107,2
2018-02-24 18:30;102,75
2018-02-24 18:45;112,45
2018-02-24 19:00;119,95
2018-02-24 19:15;114,55
2018-02-24 19:30;109,2
2018-02-24 19:45;108,65
2018-02-24 20:00;110,05
2018-02-24 20:15;107,75
2018-02-24 20:30;107,35
2018-02-24 20:45;102,15
2018-02-24 21:00;105,1
2018-02-24 21:15;106,5
2018-02-24 21:30;101,95
2018-02-24 21:45;102,05
2018-02-24 22:00;96,2
2018-02-24 22:15;97,4
2018-02-24 22:30;97,4
2018-02-24 22:45;95,25
2018-02-24 23:00;104,85
2018-02-24 23:15;100,65
2018-02-24 23:30;105,85
2018-02-24 23:45;109,25
2018-02-25 00:00;99,85
2018-02-25 00:15;100,05
2018-02-25 00:30;97,8
2018-02-25 00:45;99,8
2018-02-25 01:00;98,3
2018-02-25 01:15;100,05
2018-02-25 01:30;97,75
2018-02-25 01:45;101,2
2018-02-25 02:00;101,3
2018-02-25 02:15;96,75
2018-02-25 02:30;97,5
2018-02-25 02:45;96,55
2018-02-25 03:00;97,5
2018-02-25 03:15;95,75
2018-02-25 03:30;97,45
2018-02-25 03:45;97,6
2018-02-25 04:00;95
2018-02-25 04:15;96,85
2018-02-25 04:30;93,85
2018-02-25 04:45;96,85
2018-02-25 05:00;92,65
2018-02-25 05:15;94,4
2018-02-25 05:30;93,15
2018-02-25 05:45;91,95
2018-02-25 06:00;94,6
2018-02-25 06:15;93,15
2018-02-25 06:30;96,4
2018-02-25 06:45;93,3
2018-02-25 07:00;92,2
2018-02-25 07:15;90,3
2018-02-25 07:30;92,35
2018-02-25 07:45;88,35
2018-02-25 08:00;87,1
2018-02-25 08:15;87,55
2018-02-25 08:30;83,8
2018-02-25 08:45;86,15
2018-02-25 09:00;83,95
2018-02-25 09:15;84,8
2018-02-25 09:30;84,5
2018-02-25 09:45;84,9
2018-02-25 10:00;85,1
2018-02-25 10:15;82,85
2018-02-25 10:30;84,65
2018-02-25 10:45;85,35
2018-02-25 11:00;90,55
2018-02-25 11:15;88,1
2018-02-25 11:30;90,95
2018-02-25 11:45;89,05
2018-02-25 12:00;92,3
2018-02-25 12:15;95,4
2018-02-25 12:30;90,85
2018-02-25 12:45;90,65
2018-02-25 13:00;89,55
2018-02-25 13:15;93
2018-02-25 13:30;96,05
2018-02-25 13:45;94,55
2018-02-25 14:00;96,35
2018-02-25 14:15;98,9
2018-02-25 14:30;98,2
2018-02-25 14:45;99,4
2018-02-25 15:00;92,65
2018-02-25 15:15;95,55
2018-02-25 15:30;92,7
2018-02-25 15:45;95,1
2018-02-25 16:00;92,55
2018-02-25 16:15;98,3
2018-02-25 16:30;97,6
2018-02-25 16:45;97,35
2018-02-25 17:00;102,15
2018-02-25 17:15;101,8
2018-02-25 17:30;102,25
2018-02-25 17:45;107,65
2018-02-25 18:00;109,85
2018-02-25 18:15;111,9
2018-02-25 18:30;109,5
2018-02-25 18:45;111,65
2018-02-25 19:00;122,25
2018-02-25 19:15;113,75
2018-02-25 19:30;110,2
2018-02-25 19:45;116,5
2018-02-25 20:00;114,25
2018-02-25 20:15;116
2018-02-25 20:30;110,25
2018-02-25 20:45;109,95
2018-02-25 21:00;109,3
2018-02-25 21:15;110,85
2018-02-25 21:30;109,15
2018-02-25 21:45;109,4
2018-02-25 22:00;105,65
2018-02-25 22:15;105,35
2018-02-25 22:30;103,85
2018-02-25 22:45;105,8
2018-02-25 23:00;109,4
2018-02-25 23:15;104,65
2018-02-25 23:30;105,2
2018-02-25 23:45;112,1

